SES-21

Last updated on Fri Dec 19 2025 00:02:53 GMT+0000 (Coordinated Universal Time)

1 53961U 22123B 25352.61116535 .00000094 00000+0 00000+0 0 9990 2 53961 0.0231 35.9016 0001040 228.6164 271.9877 1.00269001 5409
UTC large
Height (km)
Speed (km/s)
/
Latitude / Longitude
Inclination (degrees)
Orbital Period (minutes)
Azimuth
Elevation
Range (km)
Doppler Factor

Next 0 passes for location: London (51.5072 / 0.1276)

Sorry there are no passes over London.